Home   Weather   City of Melbourne   Past weeks
Flag for USA

Past Weather in City of Melbourne, Arkansas, USA — Yesterday and Last 2 Weeks

Now
35 °F

Light rain. More clouds than sun.


Feels Like: 28 °F
Forecast: 38 / 30 °F
Wind: 9 mph from Northeast

Location: Batesville Regional Airport

Current Time: Feb 15, 2019 at 5:21:58 pm

Latest Report: Feb 15, 2019 at 4:56 pm


Visibility: 10 mi

Pressure: 29.87 "Hg

Humidity: 82%

Dew Point: 30 °F

Location of City of MelbourneLocation

Past Weather in City of Melbourne — Graph

°F

City of Melbourne Temperature Yesterday

Maximum temperature yesterday: 61 °F (at 3:56 pm)
Minimum temperature yesterday: 48 °F (at 4:56 am)
Average temperature yesterday: 53 °F

High & Low Weather Summary for the Past Weeks

 TemperatureHumidityPressure
High76 °F (Feb 4, 3:56 pm)100% (Feb 1, 6:16 am)30.80 "Hg (Feb 1, 6:16 am)
Low18 °F (Feb 8, 6:56 am)27% (Feb 13, 1:56 pm)29.68 "Hg (Feb 7, 6:56 am)
Average46 °F83%30.08 "Hg
* Reported Jan 31 7:56 pm — Feb 15 3:56 pm, City of Melbourne. Weather by CustomWeather, © 2019

Note: Actual official high and low records may vary slightly from our data, if they occured in-between our weather recording intervals... More about our weather records

Advertising

City of Melbourne Weather History for the Previous 24 Hours

Scroll right to see more
 ConditionsComfort  
Time TempWeatherWind HumidityBarometerVisibility
3:56 pm
Fri, Feb 15
36 °FLight rain. Mostly cloudy.9 mph79%29.85 "Hg10 mi
3:31 pm36 °FMore clouds than sun.13 mph81%29.85 "Hg10 mi
2:56 pm37 °FMostly cloudy.6 mph82%29.87 "Hg10 mi
1:56 pm36 °FLight rain. Mostly cloudy.10 mph85%29.87 "Hg10 mi
1:44 pm37 °FLight rain. Mostly cloudy.10 mph81%29.88 "Hg10 mi
12:56 pm37 °FMostly cloudy.8 mph86%29.90 "Hg9 mi
11:56 am36 °FRain. Fog.7 mph89%29.91 "Hg6 mi
10:56 am36 °FRain. Fog.7 mph89%29.94 "Hg5 mi
9:56 am36 °FLight rain. Mostly cloudy.7 mph85%29.96 "Hg7 mi
8:56 am37 °FLight rain. Overcast.6 mph76%29.97 "Hg8 mi
7:56 am37 °FOvercast.6 mph79%29.97 "Hg6 mi
6:56 am37 °FSunny.7 mph79%29.93 "Hg7 mi
5:56 am38 °FClear.8 mph76%29.91 "Hg7 mi
4:56 am39 °FClear.6 mph79%29.91 "Hg7 mi
3:56 am42 °FClear.7 mph76%29.88 "Hg9 mi
2:56 am47 °FClear.9 mph69%29.86 "Hg10 mi
1:56 am50 °FClear.6 mph68%29.85 "Hg10 mi
12:56 am51 °FClear.3 mph74%29.84 "Hg10 mi
11:56 pm
Thu, Feb 14
50 °FClear.3 mph83%29.80 "Hg10 mi
10:56 pm49 °FClear.No wind90%29.81 "Hg10 mi
9:56 pm49 °FClear.No wind90%29.80 "Hg10 mi
8:56 pm54 °FClear.3 mph83%29.79 "Hg10 mi
7:56 pm54 °FClear.3 mph83%29.77 "Hg10 mi
6:56 pm57 °FClear.8 mph74%29.76 "Hg10 mi
5:56 pm59 °FPassing clouds.7 mph69%29.72 "Hg10 mi
Weather by CustomWeather, © 2019

See weather overview